sat.trackr.live / text

‹ back to catalog

KUIPER-00193

NORAD 68576 · 2026-072D

PAYLOAD ACTIVE UNKNOWN

§ Identity

Operator
Country
US
Launch date
2026-04-04
Launch site
AFETR
Launch vehicle
Mass (kg)
RCS (m²)

External: N2YO · Heavens-Above · Gunter

§ Orbital elements

Epoch: 2026-05-25T04:00:03.998880Z

Period
94.25 min
Inclination
51.8805°
Eccentricity
0.0002635
Mean motion
15.27779595 rev/d
Perigee alt
480.6 km
Apogee alt
484.3 km
Semi-major
6,860.6 km
B*
-4.8337e-2
RAAN
288.4077°
Arg perigee
271.3534°
Mean anomaly
212.7597°
Rev number
512

§ Raw data

KUIPER-001931 68576U 26072D   26145.16671295 -.01222394  00000+0 -48337-1 0  99942 68576  51.8805 288.4077 0002635 271.3534 212.7597 15.27779595  5126

JSON: /api/v1/satellites/68576 · /tle

For live sub-satellite position, see the globe view (requires WebGL).

§ Visibility from observer

Set your observer location to see the next 7 days of passes ≥ 10°. The values pass through the URL so the page stays shareable.

No JS? Fill the form by hand. The geolocation button needs JavaScript.